TimeCST,TemperatureF,Dew PointF,Humidity,Sea Level PressureIn,VisibilityMPH,Wind Direction,Wind SpeedMPH,Gust SpeedMPH,PrecipitationIn,Events,Conditions,WindDirDegrees,DateUTC
12:52 AM,32.0,10.0,40,30.31,-9999.0,NW,11.5,19.6,N/A,,Unknown,320,2013-01-20 06:52:00
1:52 AM,28.0,9.0,45,30.35,-9999.0,NNW,9.2,16.1,N/A,,Unknown,330,2013-01-20 07:52:00
2:52 AM,25.0,10.9,55,30.35,-9999.0,North,9.2,19.6,N/A,,Unknown,350,2013-01-20 08:52:00
3:52 AM,21.9,12.0,66,30.36,-9999.0,NNW,5.8,-,N/A,,Unknown,340,2013-01-20 09:52:00
4:52 AM,19.9,7.0,57,30.37,-9999.0,North,3.5,-,N/A,,Unknown,360,2013-01-20 10:52:00
5:52 AM,19.0,7.0,59,30.39,-9999.0,NNE,3.5,-,N/A,,Unknown,20,2013-01-20 11:52:00
6:52 AM,19.0,8.1,62,30.41,-9999.0,Calm,Calm,-,N/A,,Unknown,0,2013-01-20 12:52:00
7:52 AM,19.0,9.0,65,30.41,-9999.0,NNE,5.8,-,N/A,,Unknown,20,2013-01-20 13:52:00
8:52 AM,19.9,8.1,60,30.42,-9999.0,NNE,6.9,-,N/A,,Unknown,20,2013-01-20 14:52:00
9:52 AM,21.0,6.1,53,30.42,-9999.0,NE,6.9,-,N/A,,Unknown,50,2013-01-20 15:52:00
10:52 AM,24.1,5.0,44,30.44,-9999.0,NNE,8.1,-,N/A,,Unknown,30,2013-01-20 16:52:00
11:52 AM,25.0,6.1,45,30.43,-9999.0,Variable,3.5,-,N/A,,Unknown,0,2013-01-20 17:52:00
12:52 PM,26.1,7.0,44,30.41,-9999.0,Variable,5.8,-,N/A,,Unknown,0,2013-01-20 18:52:00
1:52 PM,27.0,6.1,41,30.40,-9999.0,North,8.1,-,N/A,,Unknown,10,2013-01-20 19:52:00
2:52 PM,26.1,6.1,43,30.41,-9999.0,North,9.2,-,N/A,,Unknown,10,2013-01-20 20:52:00
3:52 PM,26.1,7.0,44,30.41,-9999.0,North,8.1,-,N/A,,Unknown,360,2013-01-20 21:52:00
4:52 PM,25.0,6.1,45,30.42,-9999.0,North,5.8,-,N/A,,Unknown,350,2013-01-20 22:52:00
5:52 PM,24.1,5.0,44,30.43,-9999.0,North,6.9,-,N/A,,Unknown,360,2013-01-20 23:52:00
6:52 PM,23.0,6.1,48,30.44,-9999.0,North,6.9,-,N/A,,Unknown,350,2013-01-21 00:52:00
7:52 PM,21.9,6.1,51,30.45,-9999.0,NNW,4.6,-,N/A,,Unknown,340,2013-01-21 01:52:00
8:52 PM,19.9,9.0,62,30.46,-9999.0,NNW,5.8,-,N/A,,Unknown,330,2013-01-21 02:52:00
9:52 PM,18.0,10.0,71,30.46,-9999.0,NW,3.5,-,N/A,,Unknown,320,2013-01-21 03:52:00
10:52 PM,16.0,10.0,77,30.46,-9999.0,WNW,3.5,-,N/A,,Unknown,300,2013-01-21 04:52:00
11:52 PM,17.1,10.0,74,30.47,-9999.0,NNW,8.1,-,N/A,,Unknown,330,2013-01-21 05:52:00